FW7345 Weather Reports


time (UTC)temp
C
wind
direction
speed
KPH
gust
KPH
rain 1hr
cm
rain 24hr
cm
rain mn
cm
humidity
%
barometer
mb
20260502151605 17 49 6.4 16.1 0.00 1.45 0.00 82 1021.0
20260502130116 12 4 4.8 9.7 0.00 1.45 0.00 99 1019.9
20260502123122 11 34 1.6 6.4 0.00 1.45 0.00 100 1019.4
20260502121604 11 11 1.6 6.4 0.00 1.45 0.00 100 1019.1
20260502120131 11 356 0.0 6.4 0.00 1.45 0.00 100 1018.8
20260502114557 11 348 0.0 12.9 0.00 1.45 0.00 100 1018.6
20260502113054 11 358 6.4 11.3 0.00 1.45 0.00 100 1018.5
20260502111554 11 36 3.2 6.4 0.00 1.45 0.00 100 1018.6
20260502110057 11 0 0.0 3.2 0.00 1.45 0.00 100 1018.3
20260502104555 11 0 0.0 3.2 0.00 1.47 0.00 100 1018.2
20260502103053 11 0 0.0 4.8 0.00 1.47 0.00 100 1018.0
20260502101559 11 0 0.0 1.6 0.00 1.47 0.00 100 1017.8
20260502070048 12 53 1.6 12.9 0.00 1.93 0.00 98 1016.3
20260502064551 12 63 4.8 14.5 0.00 2.36 0.00 98 1016.3
20260502063058 12 79 3.2 17.7 0.00 2.36 0.00 98 1016.3
20260502061551 12 72 8.0 17.7 0.00 2.36 0.00 98 1016.3
20260502060051 12 86 8.0 22.5 0.00 2.36 0.00 98 1016.1
20260502054550 12 68 8.0 22.5 0.00 2.39 0.00 98 1016.0
20260502053052 12 66 6.4 20.9 0.00 2.39 0.00 98 1016.0
20260502051552 12 68 11.3 22.5 0.00 2.39 0.00 98 1015.9
20260502050051 12 71 9.7 20.9 0.00 2.39 0.00 98 1015.9
20260502044556 12 70 4.8 16.1 0.00 3.61 2.39 98 1015.8
20260502043103 12 88 6.4 19.3 0.00 3.61 2.39 98 1015.6
20260502041555 12 75 9.7 20.9 0.00 3.61 2.39 98 1015.9
20260502040105 12 79 4.8 14.5 0.00 3.61 2.39 98 1015.9
20260502034602 12 87 8.0 14.5 0.00 3.61 2.39 98 1015.7
20260502033100 12 79 8.0 20.9 0.00 3.61 2.39 98 1015.7
20260502031557 12 68 8.0 22.5 0.00 3.61 2.39 98 1015.5
20260502030056 13 89 8.0 24.1 0.00 3.61 2.39 98 1015.1
20260502024609 13 68 11.3 20.9 0.00 3.61 2.39 98 1014.6
20260502023056 13 71 9.7 20.9 0.05 3.61 2.39 98 1014.1
20260502021604 13 77 8.0 20.9 0.13 3.61 2.39 98 1013.9
20260502020054 13 58 8.0 17.7 0.15 3.61 2.39 98 1013.6
20260502014553 14 59 6.4 14.5 0.20 3.61 2.39 98 1013.5
20260502013137 14 41 11.3 19.3 0.30 3.56 2.34 98 1013.2
20260502011555 14 50 4.8 20.9 0.25 3.48 2.26 98 1013.3
20260502010106 14 15 6.4 27.4 0.25 3.45 2.24 98 1013.3
20260502004604 14 97 12.9 24.1 0.28 3.40 2.18 98 1012.5
20260502003111 15 37 4.8 12.9 0.48 3.25 2.03 98 1013.4
20260502001556 15 60 9.7 20.9 0.76 3.23 2.01 98 1012.1
20260502000053 15 65 8.0 17.7 0.76 3.20 1.98 98 1012.2
20260501234555 15 76 9.7 17.7 0.79 3.12 1.91 98 1012.1
20260501233053 15 60 3.2 19.3 0.56 2.77 1.55 98 1013.1
20260501231549 15 72 12.9 24.1 0.25 2.46 1.24 98 1011.3
20260501230048 15 79 6.4 20.9 0.23 2.44 1.22 98 1010.0
20260501224551 15 68 8.0 25.7 0.13 2.34 1.12 98 1011.4
20260501223102 15 79 8.0 19.3 0.00 2.21 0.99 98 1010.3
20260501221559 16 93 12.9 24.1 0.00 2.21 0.99 98 1010.2
20260501220105 16 71 11.3 24.1 0.05 2.21 0.99 98 1009.9
20260501214553 16 138 9.7 22.5 0.05 2.21 0.99 98 1010.5
20260501213058 16 75 9.7 20.9 0.05 2.21 0.99 98 1010.6
20260501211603 16 74 11.3 27.4 0.05 2.21 0.99 98 1011.1
20260501210059 -17 0.0 0.0 0.00 2.16 0.94 1010.5
20260501204555 -17 0.0 0.0 0.00 2.16 0.94 1010.1
20260501203053 -17 0.0 0.0 0.00 2.16 0.94 1010.2
20260501201559 -17 0.0 0.0 0.00 2.16 0.94 1009.1
20260501200056 -17 0.0 0.0 0.00 2.16 0.94 1009.7
20260501194557 -17 0.0 0.0 0.00 2.16 0.94 1009.3
20260501193103 -17 0.0 0.0 0.00 2.16 0.94 1009.2
20260501191551 -17 0.0 0.0 0.00 2.16 0.94 1009.8
20260501190128 -17 0.0 0.0 0.00 2.16 0.94 1010.1
20260501184607 -17 0.0 0.0 0.00 2.16 0.94 1009.6
20260501183050 -17 0.0 0.0 0.00 2.16 0.94 1009.8
20260501181554 -17 0.0 0.0 0.00 2.16 0.94 1008.5
20260501180110 -17 0.0 0.0 0.00 2.16 0.94 1009.0
20260501174551 -17 0.0 0.0 0.00 2.16 0.94 1009.3
20260501173052 -17 0.0 0.0 0.00 2.16 0.94 1009.9
20260501171552 -17 0.0 0.0 0.00 2.16 0.94 1011.0
20260501170056 -17 0.0 0.0 0.00 2.16 0.94 1010.9
20260501164551 -17 0.0 0.0 0.00 2.16 0.94 1011.0
20260501163058 -17 0.0 0.0 0.00 2.16 0.94 1011.7
20260501161551 -17 0.0 0.0 0.00 2.16 0.94 1011.8
20260501160057 -17 0.0 0.0 0.00 2.16 0.94 1012.3